[[{"header":{"parameterUnit":"m.s-1","parameterCategory":1,"la1":30.2991,"la2":30.254,"lo1":-89.0895,"lo2":-89.0444,"dy":0.0017,"dx":0.0017,"nx":28,"ny":28,"refTime":"2024-03-31T21:00:00:Z","depth":0,"parameterNumber":2,"parameterNumberName":"U-component_of_WINDS"},"data":[0,0,0,0,0,0,0,0,0,0,0,0,0,0,0,0,0,0,0,0,0,0,0,0,0,0,0,0,0,0,0,0,0,0,0,0,0,0,0,0,0,0,0,0,0,0,0,0,0,0,0,0,0,0,0,0,0,0,-3.0119,-3.012,0,-3.0202,-3.0203,-3.0204,-3.0198,-3.0197,-3.0195,-3.0194,-3.0281,-3.0284,-3.0287,0,0,0,0,0,0,0,0,0,0,0,0,0,-2.9957,-2.996,-3.0119,-3.012,-3.0121,-3.0202,-3.0203,-3.0205,-3.0198,-3.0197,-3.0195,-3.0194,-3.028,-3.0284,-3.0288,0,0,0,0,0,0,0,0,0,0,0,0,0,-3.0032,-2.9961,-3.0119,-3.0128,-3.0129,-3.0202,-3.0203,-3.0205,-3.0198,-3.0196,-3.0195,-3.0193,-3.0278,-3.0283,-3.0288,-3.0358,0,0,-3.0304,-3.0307,0,0,0,0,0,0,0,0,-3.0028,-3.0038,-3.0125,-3.0127,-3.0129,-3.0188,-3.0178,-3.0256,-3.0199,-3.0172,-3.0194,-3.0192,-3.0251,-3.0259,-3.0278,-3.0362,-3.0366,-3.0305,-3.0308,-3.031,-3.0312,0,0,0,0,0,0,0,-3.0023,-3.0035,-3.0152,-3.0127,-3.0129,-3.0128,-3.0137,-3.0193,-3.0221,-3.0174,-3.0174,-3.0184,-3.0252,-3.0273,-3.028,-3.0367,-3.0305,-3.0309,-3.0312,-3.0314,-3.0513,-3.0515,0,0,0,0,0,0,-3.0016,-3.0031,-3.015,-3.0155,-3.0073,-3.0133,-3.0142,-3.0171,-3.0221,-3.0226,-3.0186,-3.0183,-3.0265,-3.0274,-3.0283,-3.0368,-3.031,-3.0315,-3.0318,-3.0511,-3.0513,-3.0516,0,0,0,0,0,0,-3.0012,-3.0026,-3.0146,-3.0093,-3.0108,-3.0137,-3.017,-3.0174,-3.0195,-3.0229,-3.0234,-3.0202,-3.0264,-3.0276,-3.034,-3.0371,-3.0317,-3.0322,-3.0508,-3.0512,-3.0515,-3.0538,0,0,0,0,0,0,-3.0007,-3.0025,-3.0051,-3.0093,-3.0111,-3.02,-3.0172,-3.0177,-3.0204,-3.0202,-3.0246,-3.0251,-3.0264,-3.0332,-3.0345,-3.0377,-3.0326,-3.0506,-3.051,-3.0514,-3.0535,-3.0542,-3.0548,0,0,0,0,0,-3.0002,-3.0055,-3.0052,-3.0067,-3.0144,-3.0202,-3.0212,-3.0225,-3.0206,-3.0233,-3.0255,-3.025,-3.0366,-3.0338,-3.0353,-3.0387,-3.0504,-3.0509,-3.0513,-3.0532,-3.0541,-3.0548,0,0,0,0,0,0,-3.0016,-3.006,-3.0058,-3.0127,-3.0161,-3.0201,-3.0235,-3.0234,-3.0274,-3.027,-3.0285,-3.0295,-3.0359,-3.038,-3.0348,-3.0458,-3.0432,-3.044,-3.0442,-3.045,-3.0457,-3.045,-3.033,0,0,0,0,0,-3.0027,-3.007,-3.0107,-3.0163,-3.0181,-3.0205,-3.0231,-3.0238,-3.0274,-3.0288,-3.0315,-3.0351,-3.0395,-3.0424,-3.0467,-3.0538,-3.0548,-3.057,-3.0576,-3.0581,-3.0588,-3.0627,-3.0637,-3.0532,-3.0532,-3.0531,0,0,-3.005,-3.008,-3.0106,-3.0167,-3.0194,-3.0239,-3.0217,-3.0265,-3.0299,-3.0296,-3.0357,-3.0378,-3.0419,-3.0487,-3.0518,-3.0506,-3.0619,-3.0588,-3.0592,-3.0595,-3.0633,-3.0643,-3.0652,-3.0535,-3.0534,-3.0534,0,0,-3.0115,-3.0142,-3.0192,-3.022,-3.0261,-3.0277,-3.0289,-3.033,-3.0344,-3.0406,-3.0405,-3.0445,-3.0522,-3.0551,-3.0576,-3.0653,-3.065,-3.0667,-3.0701,-3.074,-3.0748,-3.0755,-3.0783,-3.0792,-3.0673,-3.0674,-3.0674,0,-3.0139,-3.0205,-3.0218,-3.0267,-3.0294,-3.0293,-3.0344,-3.0371,-3.0425,-3.0444,-3.043,-3.0526,-3.0553,-3.0628,-3.0647,-3.0667,-3.0682,-3.0661,-3.0746,-3.0753,-3.076,-3.0787,-3.0797,-3.0675,-3.0675,-3.0675,-3.0675,0,-3.0232,-3.0279,-3.0314,-3.0365,-3.0397,-3.0447,-3.0467,-3.0498,-3.0503,-3.0521,-3.0584,-3.0617,-3.0667,-3.0685,-3.0691,-3.0761,-3.0753,-3.0742,-3.0716,-3.0772,-3.0797,-3.0807,-3.0678,-3.0677,-3.0677,-3.0676,0,0,-3.0307,-3.0365,-3.0378,-3.0401,-3.0448,-3.0484,-3.0535,-3.0583,-3.0608,-3.0646,-3.0688,-3.0754,-3.0744,-3.0773,-3.0782,-3.0815,-3.0875,-3.0801,-3.0802,-3.0813,-3.0955,-3.0961,-3.0973,-3.0873,-3.0875,-3.0877,-3.0951,0,-3.0376,-3.0464,-3.0477,-3.0555,-3.0598,-3.0599,-3.0643,-3.0677,-3.0695,-3.0735,-3.0756,-3.0802,-3.0786,-3.0803,-3.0837,-3.086,-3.0903,-3.0855,-3.0913,-3.0915,-3.0902,-3.0986,-3.0993,-3.1061,-3.0961,-3.0962,-3.0964,0,-3.0468,-3.0507,-3.0589,-3.063,-3.0648,-3.0687,-3.0733,-3.0771,-3.081,-3.0821,-3.0853,-3.0858,-3.0911,-3.0884,-3.0958,-3.0925,-3.095,-3.0965,-3.0968,-3.0973,-3.0942,-3.0992,-3.1083,-3.1093,-3.0979,-3.0978,-3.0977,0,-3.0513,-3.0587,-3.0646,-3.0666,-3.0715,-3.0742,-3.0764,-3.0801,-3.0829,-3.087,-3.0888,-3.0935,-3.096,-3.0996,-3.1014,-3.0993,-3.1086,-3.1061,-3.1097,-3.1097,-3.1116,-3.1114,-3.1211,-3.1133,-3.1133,-3.1133,-3.1133,0,-3.0588,-3.0638,-3.0667,-3.0703,-3.0759,-3.0775,-3.083,-3.0852,-3.0885,-3.0925,-3.093,-3.0968,-3.0989,-3.1031,-3.1046,-3.1104,-3.1116,-3.1126,-3.1129,-3.1125,-3.1124,-3.1141,-3.1136,-3.1136,-3.1135,-3.1135,-3.1134,0,-3.0648,-3.0669,-3.0733,-3.0775,-3.0786,-3.0826,-3.0862,-3.0897,-3.0916,-3.0967,-3.098,-3.101,-3.1059,-3.1081,-3.1142,-3.1152,-3.1219,-3.1219,-3.1205,-3.1206,-3.1241,-3.1237,-3.1352,-3.1367,-3.128,-3.1281,-3.1281,0,-3.0694,-3.0732,-3.0778,-3.0805,-3.0828,-3.0872,-3.0901,-3.0919,-3.0949,-3.0996,-3.1026,-3.1075,-3.1116,-3.1195,-3.1222,-3.1269,-3.127,-3.1307,-3.1277,-3.1272,-3.127,-3.1267,-3.1271,-3.1312,-3.1313,-3.1313,-3.1314,0,-3.0773,-3.0782,-3.0823,-3.0868,-3.0903,-3.0939,-3.0975,-3.0998,-3.1021,-3.1055,-3.1105,-3.1136,-3.1199,-3.1248,-3.1297,-3.132,-3.1321,-3.1323,-3.1334,-3.133,-3.132,-3.1325,-3.1219,-3.132,-3.132,-3.1319,-3.1319,-3.1319,-3.0827,-3.0862,-3.0899,-3.0945,-3.0974,-3.1007,-3.1043,-3.1066,-3.1108,-3.1159,-3.1168,-3.1222,-3.126,-3.1326,-3.1351,-3.1394,-3.1385,-3.1401,-3.1405,-3.1408,-3.141,-3.1314,-3.1403,-3.1403,-3.1403,-3.1403,-3.1403,0,-3.0906,-3.0931,-3.0973,-3.1023,-3.1059,-3.1057,-3.1097,-3.1127,-3.1174,-3.121,-3.125,-3.1308,-3.1356,-3.1388,-3.1436,-3.1464,-3.1466,-3.1477,-3.1474,-3.148,-3.1415,-3.1401,-3.1474,-3.1474,-3.1474,-3.1474,-3.1474,-3.1474,-3.0952,-3.1009,-3.1023,-3.1095,-3.1119,-3.1171,-3.1194,-3.1226,-3.1254,-3.1319,-3.1358,-3.1378,-3.1413,-3.1464,-3.1508,-3.1517,-3.1534,-3.1545,-3.1553,-3.1492,-3.1484,-3.1477,-3.1463,-3.1549,-3.1549,-3.1613,-3.1614,-3.1614]},{"header":{"parameterUnit":"m.s-1","parameterCategory":1,"la1":30.2991,"la2":30.254,"lo1":-89.0895,"lo2":-89.0444,"dy":0.0017,"dx":0.0017,"nx":28,"ny":28,"refTime":"2024-03-31T21:00:00:Z","depth":0,"parameterNumber":3,"parameterNumberName":"V-component_of_WINDS"},"data":[0,0,0,0,0,0,0,0,0,0,0,0,0,0,0,0,0,0,0,0,0,0,0,0,0,0,0,0,0,0,0,0,0,0,0,0,0,0,0,0,0,0,0,0,0,0,0,0,0,0,0,0,0,0,0,0,0,0,3.7405,3.7406,0,3.749,3.7491,3.7492,3.7496,3.7495,3.7494,3.7493,3.758,3.7583,3.7586,0,0,0,0,0,0,0,0,0,0,0,0,0,3.7245,3.7248,3.7405,3.7406,3.7407,3.749,3.7492,3.7493,3.7497,3.7495,3.7494,3.7493,3.7579,3.7582,3.7586,0,0,0,0,0,0,0,0,0,0,0,0,0,3.7321,3.7249,3.7405,3.7419,3.7421,3.749,3.7492,3.7493,3.7497,3.7495,3.7494,3.7492,3.7577,3.7582,3.7587,3.7647,0,0,3.7601,3.7604,0,0,0,0,0,0,0,0,3.7317,3.7327,3.7416,3.7418,3.7421,3.7481,3.7467,3.7544,3.7497,3.7468,3.7493,3.7492,3.7548,3.7555,3.7574,3.7651,3.7654,3.7602,3.7605,3.7607,3.7608,0,0,0,0,0,0,0,3.7312,3.7323,3.7439,3.7417,3.742,3.7421,3.743,3.7482,3.7515,3.7471,3.7471,3.7481,3.7549,3.757,3.7576,3.7656,3.7602,3.7606,3.7609,3.7611,3.7788,3.7789,0,0,0,0,0,0,3.7304,3.7319,3.7436,3.7441,3.7364,3.7425,3.7436,3.7463,3.7515,3.7521,3.7482,3.7481,3.7562,3.7571,3.7579,3.7655,3.7607,3.7611,3.7614,3.7786,3.7788,3.779,0,0,0,0,0,0,3.73,3.7314,3.7433,3.738,3.7396,3.743,3.7461,3.7466,3.7487,3.7524,3.753,3.7497,3.7561,3.7573,3.7631,3.7658,3.7614,3.7618,3.7784,3.7787,3.7789,3.7805,0,0,0,0,0,0,3.7295,3.7313,3.7336,3.7381,3.7398,3.7482,3.7463,3.7469,3.7495,3.7494,3.7539,3.7546,3.7561,3.7623,3.7635,3.7664,3.7622,3.7781,3.7785,3.7788,3.7802,3.7808,3.7813,0,0,0,0,0,3.729,3.7336,3.7337,3.7351,3.7428,3.7484,3.7494,3.7511,3.7497,3.7521,3.7545,3.7544,3.7653,3.7629,3.7643,3.7673,3.778,3.7784,3.7788,3.78,3.7807,3.7813,0,0,0,0,0,0,3.7292,3.7342,3.7344,3.7406,3.7441,3.7484,3.7515,3.7518,3.7557,3.7554,3.7574,3.7584,3.7642,3.7663,3.7636,3.7735,3.7715,3.7722,3.7719,3.7726,3.7731,3.7725,3.7626,0,0,0,0,0,3.73,3.7341,3.7383,3.7433,3.7451,3.748,3.7505,3.7515,3.7552,3.7567,3.7595,3.7631,3.7673,3.77,3.7741,3.7805,3.7816,3.7833,3.7838,3.7842,3.7848,3.7886,3.7894,3.7803,3.7803,3.7803,0,0,3.7316,3.7349,3.7373,3.7435,3.7463,3.7506,3.7492,3.7537,3.757,3.7573,3.7631,3.7653,3.7694,3.7755,3.7784,3.7775,3.7876,3.7847,3.785,3.7854,3.7891,3.7899,3.7907,3.7806,3.7806,3.7805,0,0,3.7368,3.7396,3.7443,3.7472,3.7516,3.7535,3.7546,3.759,3.7605,3.7663,3.7667,3.7706,3.7778,3.7808,3.7832,3.7898,3.7899,3.791,3.7938,3.7975,3.7982,3.7988,3.8014,3.8022,3.7916,3.7916,3.7916,0,3.7383,3.7448,3.7466,3.7513,3.754,3.7547,3.7594,3.7622,3.7676,3.7695,3.7684,3.7776,3.7804,3.7874,3.789,3.7909,3.7924,3.7906,3.7979,3.7986,3.7992,3.8017,3.8026,3.7917,3.7917,3.7917,3.7917,0,3.7465,3.7511,3.7543,3.7597,3.7628,3.7674,3.77,3.7729,3.7738,3.7758,3.7818,3.7852,3.7901,3.7918,3.7925,3.7989,3.7983,3.7975,3.7956,3.8002,3.8025,3.8035,3.7919,3.7919,3.7918,3.7918,0,0,3.7521,3.7586,3.7597,3.7623,3.7672,3.7708,3.7755,3.7804,3.7829,3.7867,3.7908,3.797,3.7964,3.7992,3.8003,3.8035,3.8087,3.8024,3.8025,3.8036,3.8162,3.8169,3.8179,3.8088,3.809,3.8091,3.8159,0,3.758,3.7666,3.7684,3.7758,3.7801,3.7808,3.785,3.7885,3.7906,3.7945,3.7968,3.8012,3.8,3.8017,3.8049,3.8074,3.8113,3.8069,3.8128,3.813,3.8119,3.8191,3.8197,3.826,3.8168,3.817,3.8171,0,3.766,3.7701,3.778,3.7826,3.7844,3.7882,3.7929,3.7966,3.8007,3.8019,3.8052,3.806,3.8111,3.8088,3.8159,3.8129,3.8154,3.817,3.8173,3.818,3.8154,3.8202,3.828,3.829,3.8185,3.8184,3.8183,0,3.7696,3.777,3.7828,3.7849,3.7903,3.7929,3.7953,3.7992,3.8021,3.8062,3.8081,3.8127,3.8152,3.8188,3.8209,3.819,3.8279,3.8257,3.8292,3.8292,3.8311,3.831,3.8397,3.8325,3.8324,3.8324,3.8324,0,3.7761,3.7809,3.7845,3.788,3.7935,3.7955,3.8009,3.8032,3.8067,3.8108,3.8116,3.8154,3.8179,3.822,3.8237,3.8294,3.8305,3.8318,3.8322,3.8318,3.8317,3.8335,3.8332,3.8327,3.8326,3.8326,3.8325,0,3.7809,3.7835,3.7899,3.7945,3.7958,3.7997,3.8037,3.8072,3.8093,3.8144,3.8157,3.8191,3.824,3.8265,3.8325,3.8337,3.8402,3.8402,3.8389,3.8391,3.8425,3.8422,3.8528,3.8544,3.8459,3.846,3.8461,0,3.785,3.7888,3.7939,3.7967,3.7992,3.8037,3.8067,3.8089,3.812,3.817,3.8199,3.8249,3.8291,3.8369,3.8399,3.8446,3.8449,3.8483,3.8456,3.8452,3.8452,3.845,3.8455,3.8488,3.8489,3.849,3.849,0,3.792,3.7931,3.7974,3.8023,3.8059,3.8097,3.8136,3.8158,3.8187,3.8221,3.8272,3.8305,3.8368,3.8418,3.8468,3.8493,3.8497,3.8498,3.8509,3.8506,3.8498,3.8505,3.8404,3.8496,3.8495,3.8495,3.8495,3.8494,3.7967,3.8002,3.8044,3.8093,3.8124,3.816,3.8196,3.8222,3.8266,3.832,3.833,3.8385,3.8426,3.8493,3.852,3.8563,3.8556,3.8571,3.8575,3.8579,3.8582,3.849,3.8572,3.8572,3.8572,3.8572,3.8572,0,3.804,3.8068,3.8112,3.8166,3.8204,3.8205,3.8248,3.828,3.8329,3.8367,3.8408,3.8468,3.8517,3.8551,3.8601,3.863,3.8633,3.8642,3.8641,3.8647,3.8585,3.8571,3.8639,3.8639,3.8639,3.8639,3.8639,3.8639,3.8082,3.8141,3.8158,3.8234,3.8261,3.8316,3.834,3.8374,3.8405,3.8472,3.8513,3.8535,3.8572,3.8625,3.8671,3.868,3.8699,3.8708,3.8717,3.8658,3.8651,3.8645,3.8632,3.8712,3.8712,3.8777,3.8777,3.8778]}]]